Flag for Brazil Weather past 2 weeks in São Luis, Maranhão, Brazil

Now
79 °F

Passing clouds.


Feels Like: 81 °F
Forecast: 77 / 89 °F
Wind: 7 mph from East

Location: Sao Luiz Aeroporto

Current Time: Aug 31, 2015 at 2:35:57 AM

Latest Report: Aug 31, 2015 at 2:00 AM


Visibility: N/A

Pressure: 29.92 "Hg

Humidity: 74%

Dew point: 70 °F

Location of São LuisLocation

Historic Weather in São Luis — Graph

°F

São Luis temperature yesterday

Maximum temperature yesterday: 90 °F (at 2:00 PM)
Minimum temperature yesterday: 79 °F (at 12:00 AM)
Average temperature yesterday: 82 °F

Past Weeks' High & Low Weather Summary

 TemperatureHumidityPressure
High95 °F (Aug 16, 2:00 PM)84% (Aug 17, 12:00 AM)30.01 "Hg (Aug 17, 12:00 AM)
Low77 °F (Aug 16, 4:00 AM)34% (Aug 16, 2:00 PM)29.77 "Hg (Aug 23, 3:00 PM)
Average82 °F68%29.89 "Hg
* Reported Aug 16 1:00 AM — Aug 31 1:00 AM, São Luis, Weather by CustomWeather, © 2015

Note: Actual official high and low records may vary slightly from our data, if they occured in-between our weather recording intervals... More about our weather records

Advertising

São Luis weather history for previous 24 hours

 ConditionsComfort  
Time TempWeatherWind HumidityBarometerVisibility
1:00 AM
Mon, Aug 31
79 °FClear.6 mph74%29.95 "Hg10 mi
12:00 AM79 °FClear.8 mph74%29.95 "Hg10 mi
11:00 PM
Sun, Aug 30
79 °FClear.7 mph79%29.98 "Hg10 mi
10:00 PM79 °FPassing clouds.8 mph79%29.98 "HgN/A
9:00 PM81 °FPassing clouds.10 mph74%29.95 "HgN/A
8:00 PM81 °FPassing clouds.9 mph70%29.95 "HgN/A
7:00 PM81 °FPassing clouds.13 mph70%29.92 "HgN/A
6:00 PM82 °FPassing clouds.13 mph66%29.92 "HgN/A
5:00 PM84 °FPassing clouds.17 mph62%29.89 "HgN/A
4:00 PM86 °FPassing clouds.17 mph55%29.89 "HgN/A
3:00 PM88 °FPassing clouds.12 mph49%29.92 "HgN/A
2:00 PM90 °FPassing clouds.18 mph43%29.92 "HgN/A
1:00 PM88 °FScattered clouds.14 mph49%29.95 "HgN/A
12:00 PM88 °FScattered clouds.8 mph52%29.98 "HgN/A
11:00 AM86 °FScattered clouds.18 mph55%30.01 "HgN/A
10:00 AM84 °FScattered clouds.12 mph58%30.01 "HgN/A
9:00 AM82 °FScattered clouds.16 mph62%30.01 "HgN/A
8:00 AM82 °FScattered clouds.16 mph62%29.98 "HgN/A
7:00 AM81 °FPartly sunny.16 mph66%29.95 "HgN/A
6:00 AM79 °FScattered clouds.13 mph70%29.95 "HgN/A
5:00 AM79 °FPassing clouds.13 mph70%29.92 "HgN/A
4:00 AM79 °FPassing clouds.13 mph70%29.92 "HgN/A
3:00 AM79 °FPartly cloudy.13 mph74%29.92 "HgN/A
2:00 AM81 °FPartly cloudy.10 mph70%29.92 "HgN/A
Weather by CustomWeather, © 2015

See weather overviewHow to use our weather pages